カタログに戻る

SITRO-AIS-41

運用中ナビゲーションPO
NORAD 61760·PAYLOAD·🇷🇺 Russia
この衛星名は、まだ公式ソースで確認されていません。

打ち上げ Nov 4, 2024 から Vostochny Cosmodrome

Loading…

次のパス (今後24時間)

TLE

最新Source: Space-Track

元期: Sep 14, 2026, 21:10 UTC

1 61760U 24199AB  26257.88218517  .00273952  29396-4  92606-3 0  9994
2 61760  97.2669 141.4845 0002852 147.4787 212.6662 15.89944086151908

AllMySatでSITRO-AIS-41をリアルタイム追跡

Download on the App Store